West Mecca
DateTemperatureDew Point
10/17 - 01:30 PM85.6°37.1°
10/17 - 01:15 PM84.8°42.2°
10/17 - 01:00 PM83.2°50.2°
10/17 - 12:45 PM82.7°53.6°
10/17 - 12:30 PM81.7°56.5°
10/17 - 12:15 PM80.5°56.6°
10/17 - 12:00 PM80.1°54.3°
10/17 - 11:45 AM79.3°52.7°
10/17 - 11:30 AM79.1°52.0°
10/17 - 11:15 AM79.6°53.0°
10/17 - 11:00 AM79.3°54.6°
10/17 - 10:45 AM79.2°53.1°
10/17 - 10:30 AM78.1°53.7°
10/17 - 10:15 AM77.7°52.0°
10/17 - 10:00 AM76.8°45.6°
10/17 - 09:45 AM74.9°44.4°
10/17 - 09:30 AM73.9°46.7°
10/17 - 09:15 AM70.9°47.1°
10/17 - 09:00 AM66.3°50.2°
10/17 - 08:45 AM64.2°49.8°
10/17 - 08:30 AM63.3°50.0°
10/17 - 08:15 AM62.8°48.2°
10/17 - 08:00 AM59.9°45.7°
10/17 - 07:45 AM56.7°42.3°
10/17 - 07:30 AM54.8°40.5°
10/17 - 07:15 AM52.8°38.9°
10/17 - 07:00 AM52.0°40.1°
10/17 - 06:45 AM53.8°39.8°
10/17 - 06:30 AM53.5°39.4°
10/17 - 06:15 AM53.7°39.3°
10/17 - 06:00 AM54.8°38.2°
10/17 - 05:45 AM52.5°38.6°
10/17 - 05:30 AM52.5°38.6°
10/17 - 05:15 AM51.9°38.5°
10/17 - 05:00 AM52.2°39.0°
10/17 - 04:45 AM52.8°38.7°
10/17 - 04:30 AM54.0°39.2°
10/17 - 04:15 AM54.9°36.2°
10/17 - 04:00 AM54.8°36.1°
10/17 - 03:45 AM55.0°38.2°
10/17 - 03:30 AM56.9°37.3°
10/17 - 03:15 AM60.0°34.2°
10/17 - 03:00 AM63.0°34.6°
10/17 - 02:45 AM63.1°30.5°
10/17 - 02:30 AM59.7°34.3°
10/17 - 02:15 AM61.5°37.1°
10/17 - 02:00 AM64.2°30.8°
10/17 - 01:45 AM63.2°33.3°
10/17 - 01:30 AM65.0°33.7°
10/17 - 01:15 AM66.3°32.5°
10/17 - 01:00 AM67.4°29.8°
10/17 - 12:45 AM67.3°29.1°
10/17 - 12:30 AM68.2°31.6°
10/17 - 12:15 AM65.1°31.7°
10/17 - 12:00 AM56.9°42.1°
10/16 - 11:45 PM57.4°42.9°
10/16 - 11:30 PM58.2°42.2°
10/16 - 11:15 PM60.8°41.0°
10/16 - 11:00 PM65.5°39.9°
10/16 - 10:45 PM69.8°33.7°
10/16 - 10:30 PM69.5°34.7°
10/16 - 10:15 PM67.1°38.8°
10/16 - 10:00 PM63.7°36.7°
10/16 - 09:45 PM64.1°37.9°
10/16 - 09:30 PM68.9°34.4°
10/16 - 09:15 PM69.2°32.7°
10/16 - 09:00 PM67.6°35.0°
10/16 - 08:45 PM67.1°36.4°
10/16 - 08:30 PM66.6°36.7°
10/16 - 08:15 PM68.1°37.5°
10/16 - 08:00 PM70.6°34.6°
10/16 - 07:45 PM70.0°36.4°
10/16 - 07:30 PM71.0°37.3°
10/16 - 07:15 PM72.5°36.8°
10/16 - 07:00 PM72.3°38.7°
10/16 - 06:45 PM72.5°42.0°
10/16 - 06:30 PM74.4°42.0°
10/16 - 06:15 PM77.0°43.8°
10/16 - 06:00 PM80.1°43.5°
10/16 - 05:45 PM82.2°39.3°
10/16 - 05:30 PM83.2°39.9°
10/16 - 05:15 PM84.4°40.3°
10/16 - 05:00 PM85.5°41.1°
10/16 - 04:45 PM87.1°40.5°
10/16 - 04:30 PM89.7°41.2°
10/16 - 04:15 PM91.1°39.9°
10/16 - 04:00 PM92.0°39.7°
10/16 - 03:45 PM92.6°38.9°
10/16 - 03:30 PM92.6°40.1°
10/16 - 03:15 PM92.5°37.6°
10/16 - 03:00 PM92.4°38.9°
10/16 - 02:45 PM92.8°38.1°
10/16 - 02:30 PM92.8°38.6°
10/16 - 02:15 PM93.4°37.8°
10/16 - 02:00 PM92.9°33.4°
10/16 - 01:45 PM92.4°31.8°
10/16 - 01:30 PM91.8°31.5°
10/16 - 01:15 PM90.4°30.5°
10/16 - 01:00 PM90.2°32.0°
10/16 - 12:45 PM89.5°31.7°
10/16 - 12:30 PM88.7°31.6°
10/16 - 12:15 PM87.9°31.6°
10/16 - 12:00 PM87.5°32.4°
10/16 - 11:45 AM86.9°32.2°
10/16 - 11:30 AM86.0°32.2°
10/16 - 11:15 AM85.8°32.2°
10/16 - 11:00 AM84.1°34.1°
10/16 - 10:45 AM82.8°34.5°
10/16 - 10:30 AM81.7°35.8°
10/16 - 10:15 AM80.5°36.2°
10/16 - 10:00 AM79.1°35.4°
10/16 - 09:45 AM77.6°36.9°
10/16 - 09:30 AM75.1°42.3°
10/16 - 09:15 AM71.4°41.0°
10/16 - 09:00 AM67.5°39.4°
10/16 - 08:45 AM65.0°37.1°
10/16 - 08:30 AM62.9°38.0°
10/16 - 08:15 AM60.6°38.3°
10/16 - 08:00 AM57.6°39.8°
10/16 - 07:45 AM54.8°39.3°
10/16 - 07:30 AM52.9°38.9°
10/16 - 07:15 AM52.7°36.2°
10/16 - 07:00 AM54.4°34.1°
10/16 - 06:45 AM52.4°34.8°
10/16 - 06:30 AM52.5°34.9°
10/16 - 06:15 AM53.3°33.7°
10/16 - 06:00 AM55.5°34.7°
10/16 - 05:45 AM59.0°35.2°
10/16 - 05:30 AM63.1°32.8°
10/16 - 05:15 AM65.9°28.5°
10/16 - 05:00 AM69.9°25.6°
10/16 - 04:45 AM64.9°27.0°
10/16 - 04:30 AM60.9°32.8°
10/16 - 04:15 AM66.7°30.8°
10/16 - 04:00 AM71.3°23.2°
10/16 - 03:45 AM71.0°22.1°
10/16 - 03:30 AM70.7°22.5°
10/16 - 03:15 AM70.7°24.2°
10/16 - 03:00 AM70.3°22.8°
10/16 - 02:45 AM70.6°23.0°
10/16 - 02:30 AM71.1°22.3°
10/16 - 02:15 AM70.5°23.2°
10/16 - 02:00 AM71.1°22.3°
10/16 - 01:45 AM71.1°23.3°
10/16 - 01:30 AM71.5°22.6°
10/16 - 01:15 AM71.4°23.2°
10/16 - 01:00 AM72.2°23.0°
10/16 - 12:45 AM72.4°24.0°
10/16 - 12:30 AM72.5°23.7°
10/16 - 12:15 AM71.9°24.4°
10/16 - 12:00 AM71.4°24.1°
10/15 - 11:45 PM71.9°24.1°
10/15 - 11:30 PM72.4°24.9°
10/15 - 11:15 PM72.9°25.4°
10/15 - 11:00 PM74.1°24.3°
10/15 - 10:45 PM74.5°23.7°
10/15 - 10:30 PM75.4°23.5°
10/15 - 10:15 PM74.6°23.7°
10/15 - 10:00 PM74.0°24.0°
10/15 - 09:45 PM72.4°24.9°
10/15 - 09:30 PM68.3°28.0°
10/15 - 09:15 PM62.3°34.8°
10/15 - 09:00 PM62.9°36.1°
10/15 - 08:45 PM63.5°35.2°
10/15 - 08:30 PM64.9°36.0°
10/15 - 08:15 PM65.9°35.7°
10/15 - 08:00 PM68.9°35.6°
10/15 - 07:45 PM74.6°32.3°
10/15 - 07:30 PM76.0°27.7°
10/15 - 07:15 PM77.1°27.5°
10/15 - 07:00 PM76.9°27.1°
10/15 - 06:45 PM77.5°30.4°
10/15 - 06:30 PM78.7°30.2°
10/15 - 06:15 PM78.2°31.6°
10/15 - 06:00 PM78.8°35.6°
10/15 - 05:45 PM80.6°35.6°
10/15 - 05:30 PM82.9°31.2°
10/15 - 05:15 PM84.3°29.6°
10/15 - 05:00 PM85.7°24.2°
10/15 - 04:45 PM86.1°24.1°
10/15 - 04:30 PM86.6°26.2°
10/15 - 04:15 PM86.7°24.9°
10/15 - 04:00 PM86.9°26.3°
10/15 - 03:45 PM87.0°26.0°
10/15 - 03:30 PM87.1°26.5°
10/15 - 03:15 PM86.9°25.1°
10/15 - 03:00 PM87.0°26.5°
10/15 - 02:45 PM87.1°28.2°
10/15 - 02:30 PM86.7°27.4°
10/15 - 02:15 PM86.2°27.1°